Weather History for KDRA - April, 2013

Change the Weather History Date:

Thursday, April 25, 2013

  Actual Average Record
Temperature  
Mean Temperature 68 °F -  
Max Temperature 82 °F 73 °F 87 °F (2001)
Min Temperature 55 °F 46 °F 37 °F (1999)
Cooling Degree Days 4    
Growing Degree Days 18 (Base 50)    
Moisture  
Dew Point 7 °F    
Average Humidity 9    
Maximum Humidity 16    
Minimum Humidity 4    
Precipitation  
Precipitation 0.00 in - - ()
Sea Level Pressure  
Sea Level Pressure 29.82 in    
Wind  
Wind Speed 9 mph (NNE)    
Max Wind Speed 16 mph    
Max Gust Speed 24 mph    
Visibility 10 miles    
Events      
Averages and records for this station are not official NWS values.
T = Trace of Precipitation, MM = Missing Value Source: NWS Daily Summary

Daily Weather History Graph

Daily Weather History Graph

Search for Another Location

Airport or City:

Trip Planner

Search our weather history database for the weather conditions in past years. The results will help you decide how hot, cold, wet, or windy it might be!

Date:

Astronomy

Apr. 25, 2013 Rise Set
Actual Time 5:57 AM PDT 7:27 PM PDT
Civil Twilight 5:29 AM PDT 7:54 PM PDT
Nautical Twilight 4:57 AM PDT 8:27 PM PDT
Astronomical Twilight 4:22 AM PDT 9:02 PM PDT
Moon 7:44 PM PDT (4/25) 5:43 AM PDT (4/25)
Length of Visible Light 14h 25m
Length of Day
13h 30m
Full, 100% of the Moon is Illuminated
Apr 25
Full
Apr 25
Full
May 2
Last Quarter
May 9
New
May 17
First Quarter

Hourly Weather History & Observations

Time (PDT) Temp. Dew Point Humidity Pressure Visibility Wind Dir Wind Speed Gust Speed Precip Events Conditions
12:52 AM 61.0 °F 3.9 °F 10% 29.81 in 10.0 mi NE 4.6 mph - N/A   Clear
1:52 AM 57.9 °F 1.9 °F 10% 29.81 in 10.0 mi East 8.1 mph - N/A   Clear
2:52 AM 60.1 °F 8.1 °F 13% 29.80 in 10.0 mi NE 13.8 mph - N/A   Clear
3:52 AM 57.0 °F 10.0 °F 15% 29.80 in 10.0 mi NNE 15.0 mph - N/A   Clear
4:52 AM 55.9 °F 10.0 °F 16% 29.81 in 10.0 mi NE 13.8 mph - N/A   Clear
5:52 AM 55.9 °F 10.0 °F 16% 29.81 in 10.0 mi NE 15.0 mph - N/A   Clear
7:52 AM 62.1 °F 10.9 °F 13% 29.85 in 10.0 mi NNE 16.1 mph - N/A   Clear
8:52 AM 66.0 °F 10.9 °F 12% 29.86 in 10.0 mi NNE 15.0 mph - N/A   Clear
9:52 AM 71.1 °F 12.0 °F 10% 29.86 in 10.0 mi NNE 9.2 mph - N/A   Clear
10:52 AM 72.0 °F 9.0 °F 9% 29.86 in 10.0 mi Calm Calm - N/A   Clear
11:52 AM 75.0 °F 9.0 °F 8% 29.84 in 10.0 mi Variable 4.6 mph - N/A   Clear
12:52 PM 79.0 °F 7.0 °F 6% 29.81 in 10.0 mi North 10.4 mph 16.1 mph N/A   Clear
1:52 PM 79.0 °F 8.1 °F 7% 29.81 in 10.0 mi NE 6.9 mph 23.0 mph N/A   Clear
2:52 PM 79.0 °F 5.0 °F 6% 29.79 in 10.0 mi ESE 8.1 mph - N/A   Clear
3:52 PM 82.0 °F 7.0 °F 6% 29.77 in 10.0 mi WSW 6.9 mph 17.3 mph N/A   Clear
4:52 PM 81.0 °F 6.1 °F 6% 29.77 in 10.0 mi SW 12.7 mph 23.0 mph N/A   Clear
5:43 PM 78.8 °F 5.0 °F 6% 29.89 in 10.0 mi SW 13.8 mph - N/A   Clear
5:52 PM 79.0 °F 3.9 °F 6% 29.78 in 10.0 mi WSW 9.2 mph 24.2 mph N/A   Clear
6:52 PM 77.0 °F 3.9 °F 6% 29.78 in 10.0 mi SSW 11.5 mph 19.6 mph N/A   Clear
7:52 PM 73.0 °F 3.9 °F 7% 29.80 in 10.0 mi SW 5.8 mph - N/A   Clear
8:52 PM 71.1 °F 3.9 °F 7% 29.83 in 10.0 mi Calm Calm - N/A   Clear
9:52 PM 64.9 °F 3.9 °F 9% 29.87 in 10.0 mi NW 10.4 mph - N/A   Clear
10:52 PM 64.0 °F 6.1 °F 10% 29.87 in 10.0 mi North 4.6 mph - N/A   Clear
11:52 PM 66.9 °F 6.1 °F 9% 29.89 in 10.0 mi North 3.5 mph - N/A   Clear